This is the latest recevied weather packets stored in our database for station/object LU8AQL-WX. If no packets are shown the sender has not sent any weather packets the latest 10 day(s).
| Time | Temp. | Humidity | Pressure | Rain* | Wind** | Luminosity | Snow |
|---|---|---|---|---|---|---|---|
| 1777675387 | 19.44° C | 82% | 1011 hPa | 0 mm | - | - | - |
| 1777674786 | 19.44° C | 84% | 1011 hPa | 0 mm | - | - | - |
| 1777674186 | 19.44° C | 83% | 1010 hPa | 0 mm | - | - | - |
| 1777673585 | 19.44° C | 80% | 1010 hPa | 0 mm | - | - | - |
| 1777672984 | 20° C | 77% | 1010 hPa | 0 mm | - | - | - |
| 1777672383 | 20.56° C | 76% | 1010 hPa | 0 mm | - | - | - |
| 1777671782 | 20.56° C | 75% | 1010 hPa | 0 mm | - | - | - |
| 1777671181 | 20.56° C | 74% | 1010 hPa | 0 mm | - | - | - |
| 1777670580 | 21.11° C | 74% | 1009 hPa | 0 mm | - | - | - |
| 1777669979 | 21.11° C | 73% | 1009 hPa | 0 mm | - | - | - |
| 1777669378 | 21.67° C | 71% | 1009 hPa | 0 mm | - | - | - |
| 1777668777 | 21.67° C | 71% | 1009 hPa | 0 mm | - | - | - |
| 1777668176 | 22.22° C | 70% | 1009 hPa | 0 mm | - | - | - |
| 1777667575 | 22.22° C | 70% | 1009 hPa | 0 mm | - | - | - |
| 1777666974 | 22.22° C | 69% | 1009 hPa | 0 mm | - | - | - |
| 1777666373 | 22.22° C | 69% | 1009 hPa | 0 mm | - | - | - |
| 1777665772 | 22.78° C | 68% | 1009 hPa | 0 mm | - | - | - |
| 1777665171 | 22.78° C | 68% | 1009 hPa | 0 mm | - | - | - |
| 1777664570 | 22.78° C | 67% | 1009 hPa | 0 mm | - | - | - |
| 1777663969 | 22.78° C | 67% | 1009 hPa | 0 mm | - | - | - |
| 1777663368 | 22.22° C | 65% | 1008 hPa | 0 mm | - | - | - |
| 1777662768 | 22.22° C | 67% | 1008 hPa | 0 mm | - | - | - |
| 1777662166 | 22.22° C | 67% | 1008 hPa | 0 mm | - | - | - |
| 1777661565 | 22.78° C | 65% | 1008 hPa | 0 mm | - | - | - |
| 1777660965 | 22.22° C | 66% | 1008 hPa | 0 mm | - | - | - |
* Rain latest hour (hover to see other rain measurements)
** Current wind speed in m/s (hover to see current wind gust speed)